Concordia, KS

12:56 AM CST on January 23, 2018 (GMT -0600)
Blosser Municipal

Weather History for KCNK - April, 2014

Change the Weather History Date:

Saturday, April 5, 2014

  Actual Average Record
Temperature  
Mean Temperature 49 °F 50 °F  
Max Temperature 66 °F 62 °F 92 °F (2000)
Min Temperature 32 °F 38 °F 18 °F (1886)
Degree Days  
Heating Degree Days 16 16  
Month to date heating degree days 117 81  
Since 1 July heating degree days 5395 4972  
Cooling Degree Days 0 0  
Month to date cooling degree days 0 0  
Year to date cooling degree days 0 1  
Moisture  
Dew Point 29 °F    
Average Humidity 53    
Maximum Humidity 82    
Minimum Humidity 24    
Precipitation  
Precipitation 0.00 in 0.08 in 1.04 in (1999)
Month to date precipitation 0.43 0.38  
Year to date precipitation 1.85 3.76  
Snow  
Snow 0.00 in 0.00 in 2.20 in (1983)
Month to date snowfall T 0.2  
Year to date snowfall 16.9 13.4  
Since 1 July snowfall 23.2 19.9  
Snow Depth 0.00 in    
Sea Level Pressure  
Sea Level Pressure 30.05 in    
Wind  
Wind Speed 16 mph (SSE)    
Max Wind Speed 25 mph    
Max Gust Speed 33 mph    
Visibility 10 miles    
Events      
T = Trace of Precipitation, MM = Missing Value Source: NWS Daily Summary

Daily Weather History Graph

Daily Weather History Graph

Search for Another Location

Airport or City:

Trip Planner

Search our weather history database for the weather conditions in past years. The results will help you decide how hot, cold, wet, or windy it might be!

Date:

Astronomy

Apr. 05, 2014 Rise Set
Actual Time 7:08 AM CDT 7:58 PM CDT
Civil Twilight 6:41 AM CDT 8:25 PM CDT
Nautical Twilight 6:08 AM CDT 8:58 PM CDT
Astronomical Twilight 5:35 AM CDT 9:31 PM CDT
Moon 11:18 AM CDT (4/5) 1:08 AM CDT (4/5)
Length of Visible Light 13h 44m
Length of Day
12h 50m
Waxing Crescent, 34% of the Moon is Illuminated
Apr 5
Waxing Crescent
Apr 7
First Quarter
Apr 15
Full
Apr 22
Last Quarter
Apr 29
New

Hourly Weather History & Observations

Time (CDT) Temp. Windchill Dew Point Humidity Pressure Visibility Wind Dir Wind Speed Gust Speed Precip Events Conditions
12:55 AM 35.1 °F 27.9 °F 28.9 °F 78% 30.13 in 10.0 mi SE 9.2 mph - N/A   Clear
1:55 AM 35.1 °F 29.3 °F 28.9 °F 78% 30.14 in 10.0 mi SSE 6.9 mph - N/A   Clear
2:55 AM 33.1 °F 27.7 °F 28.0 °F 82% 30.13 in 10.0 mi SSE 5.8 mph - N/A   Clear
3:55 AM 35.1 °F 27.4 °F 28.0 °F 76% 30.13 in 10.0 mi South 10.4 mph - N/A   Clear
4:55 AM 34.0 °F 24.6 °F 28.0 °F 79% 30.12 in 10.0 mi South 13.8 mph - N/A   Clear
5:55 AM 35.1 °F 25.5 °F 28.0 °F 76% 30.12 in 10.0 mi South 15.0 mph - N/A   Mostly Cloudy
6:55 AM 35.1 °F 26.4 °F 28.0 °F 76% 30.12 in 10.0 mi South 12.7 mph - N/A   Overcast
7:55 AM 36.0 °F 26.7 °F 28.0 °F 73% 30.13 in 10.0 mi South 15.0 mph 24.2 mph N/A   Scattered Clouds
8:55 AM 39.9 °F 31.8 °F 30.0 °F 68% 30.12 in 10.0 mi SSE 15.0 mph - N/A   Clear
9:55 AM 46.0 °F 38.8 °F 28.9 °F 51% 30.11 in 10.0 mi SSE 18.4 mph 25.3 mph N/A   Clear
10:55 AM 50.0 °F - 30.0 °F 46% 30.11 in 10.0 mi South 17.3 mph - N/A   Clear
11:55 AM 54.0 °F - 30.0 °F 40% 30.09 in 10.0 mi South 19.6 mph 27.6 mph N/A   Clear
12:55 PM 60.1 °F - 28.9 °F 31% 30.06 in 10.0 mi South 18.4 mph 27.6 mph N/A   Clear
1:55 PM 62.1 °F - 26.1 °F 25% 30.02 in 10.0 mi South 18.4 mph 29.9 mph N/A   Clear
2:55 PM 64.0 °F - 26.1 °F 24% 29.98 in 10.0 mi SSE 23.0 mph 29.9 mph N/A   Clear
3:55 PM 64.0 °F - 27.0 °F 25% 29.95 in 10.0 mi South 21.9 mph 26.5 mph N/A   Clear
4:55 PM 64.9 °F - 28.0 °F 25% 29.94 in 10.0 mi South 20.7 mph 29.9 mph N/A   Partly Cloudy
5:55 PM 64.0 °F - 28.0 °F 26% 29.93 in 10.0 mi South 19.6 mph 31.1 mph N/A   Clear
6:55 PM 62.1 °F - 27.0 °F 26% 29.94 in 10.0 mi South 19.6 mph 26.5 mph N/A   Scattered Clouds
7:55 PM 57.9 °F - 28.9 °F 33% 29.95 in 10.0 mi South 11.5 mph - N/A   Overcast
8:55 PM 54.0 °F - 30.0 °F 40% 29.95 in 10.0 mi South 11.5 mph - N/A   Clear
9:55 PM 55.0 °F - 30.9 °F 40% 29.96 in 10.0 mi SSE 11.5 mph - N/A   Partly Cloudy
10:55 PM 54.0 °F - 30.0 °F 40% 29.97 in 7.0 mi SSE 16.1 mph - N/A   Partly Cloudy
11:55 PM 53.1 °F - 30.0 °F 41% 29.96 in 6.0 mi SSE 16.1 mph - N/A   Haze